HAZ849 ZGGG-KLAX

Flight info

Callsign HAZ849
Flight time N/A
Altitude 31100
Route BOVMA9 BOVMA W41 OMDUP G471 PLT A599 JTN G327 LAMEN/N0500F311 A593 SADLI Y590 BEDAR Y591 FUE Y23 KASTE Y81 TASOT Y57 POROT Y809 IDLAN Y812 ADNAP OTR5 KALNA DCT 42N160E 44N170E 45N180E 47N170W 47N160W 45N150W 43N145W 41N140W DCT HEKAB DCT CEPAS DCT PIRAT DCT BURGL IRNMN2
Aircraft B77W/H-SDE1E2E3FGHIJ2J3J4J5M1RWXY/LB1D1

Departure

Time N/A
Airport Guangzhou Baiyun International Airport (ZGGG)

Arrival

Time 2026-04-21 04:49
Airport Los Angeles International Airport (KLAX)
Time Latitude Longitude Altitude Speed Heading
2026-04-21 04:14 35.99154 -120.65354 36975 ft 471 kts 132°
2026-04-21 04:15 35.95380 -120.58981 36980 ft 469 kts 132°
2026-04-21 04:15 35.91539 -120.52511 36984 ft 472 kts 132°
2026-04-21 04:16 35.87655 -120.45976 36986 ft 471 kts 132°
2026-04-21 04:16 35.83793 -120.39490 36983 ft 469 kts 132°
2026-04-21 04:17 35.79914 -120.32992 36974 ft 473 kts 132°
2026-04-21 04:17 35.76043 -120.26515 36966 ft 470 kts 132°
2026-04-21 04:18 35.72152 -120.20019 36971 ft 471 kts 132°
2026-04-21 04:18 35.68214 -120.13610 36954 ft 466 kts 137°
2026-04-21 04:19 35.63389 -120.08556 36970 ft 458 kts 152°
2026-04-21 04:19 35.58064 -120.04427 36983 ft 456 kts 153°
2026-04-21 04:20 35.52653 -120.00304 36991 ft 455 kts 153°
2026-04-21 04:20 35.47236 -119.96205 36997 ft 457 kts 154°
2026-04-21 04:21 35.41837 -119.92138 37000 ft 458 kts 154°
2026-04-21 04:21 35.36417 -119.88067 37002 ft 458 kts 153°
2026-04-21 04:22 35.31119 -119.84096 36708 ft 449 kts 154°
2026-04-21 04:22 35.28471 -119.82021 35735 ft 455 kts 149°
2026-04-21 04:22 35.25945 -119.79695 34900 ft 456 kts 148°
2026-04-21 04:22 35.23425 -119.77333 34133 ft 455 kts 148°
2026-04-21 04:23 35.20908 -119.74974 33377 ft 455 kts 148°
2026-04-21 04:23 35.18401 -119.72632 32586 ft 471 kts 147°
2026-04-21 04:23 35.15736 -119.70149 31650 ft 486 kts 147°
2026-04-21 04:23 35.13071 -119.67661 30753 ft 487 kts 147°
2026-04-21 04:24 35.10372 -119.65142 30217 ft 479 kts 147°
2026-04-21 04:24 35.07748 -119.62694 29713 ft 472 kts 147°
2026-04-21 04:24 35.05181 -119.60302 29159 ft 466 kts 147°
2026-04-21 04:24 35.02623 -119.57922 28580 ft 460 kts 147°
2026-04-21 04:25 35.00082 -119.55562 27994 ft 455 kts 147°
2026-04-21 04:25 34.97580 -119.53239 27426 ft 450 kts 147°
2026-04-21 04:25 34.95118 -119.50956 26840 ft 445 kts 147°
2026-04-21 04:25 34.92655 -119.48673 26257 ft 440 kts 147°
2026-04-21 04:26 34.90254 -119.46463 25711 ft 434 kts 147°
2026-04-21 04:26 34.87838 -119.44298 25314 ft 425 kts 148°
2026-04-21 04:26 34.85504 -119.42213 24928 ft 416 kts 148°
2026-04-21 04:26 34.83177 -119.40134 24514 ft 409 kts 148°
2026-04-21 04:27 34.80929 -119.38127 24112 ft 401 kts 148°
2026-04-21 04:27 34.78690 -119.36129 23714 ft 394 kts 148°
2026-04-21 04:27 34.76494 -119.34171 23320 ft 387 kts 148°
2026-04-21 04:27 34.74342 -119.32252 22933 ft 381 kts 149°
2026-04-21 04:28 34.72207 -119.30385 22524 ft 376 kts 149°
2026-04-21 04:28 34.70094 -119.28542 22107 ft 372 kts 149°
2026-04-21 04:28 34.68006 -119.26721 21696 ft 370 kts 149°
2026-04-21 04:28 34.65926 -119.24908 21298 ft 367 kts 149°
2026-04-21 04:29 34.63883 -119.23133 20910 ft 365 kts 149°
2026-04-21 04:29 34.61839 -119.21372 20532 ft 363 kts 149°
2026-04-21 04:29 34.59775 -119.19595 20154 ft 360 kts 149°
2026-04-21 04:29 34.57735 -119.17839 19781 ft 357 kts 149°
2026-04-21 04:30 34.55743 -119.16121 19407 ft 355 kts 149°
2026-04-21 04:30 34.53746 -119.14356 19038 ft 354 kts 148°
2026-04-21 04:30 34.51770 -119.12599 18665 ft 351 kts 148°
2026-04-21 04:30 34.49810 -119.10859 18305 ft 348 kts 149°
2026-04-21 04:31 34.47861 -119.09134 17946 ft 346 kts 148°
2026-04-21 04:31 34.45923 -119.07420 17594 ft 346 kts 148°
2026-04-21 04:31 34.43987 -119.05709 17187 ft 344 kts 148°
2026-04-21 04:31 34.42051 -119.04023 16784 ft 340 kts 149°
2026-04-21 04:32 34.40140 -119.02371 16445 ft 337 kts 149°
2026-04-21 04:32 34.38240 -119.00729 16067 ft 337 kts 149°
2026-04-21 04:32 34.36388 -118.99128 15708 ft 336 kts 148°
2026-04-21 04:32 34.34478 -118.97476 15353 ft 333 kts 148°
2026-04-21 04:33 34.32595 -118.95805 15000 ft 333 kts 147°
2026-04-21 04:33 34.30753 -118.94120 14664 ft 332 kts 147°
2026-04-21 04:33 34.28929 -118.92454 14334 ft 330 kts 147°
2026-04-21 04:33 34.27110 -118.90801 13995 ft 329 kts 147°
2026-04-21 04:34 34.25259 -118.89122 13647 ft 327 kts 147°
2026-04-21 04:34 34.23467 -118.87478 13297 ft 322 kts 146°
2026-04-21 04:34 34.21716 -118.85864 12966 ft 316 kts 146°
2026-04-21 04:34 34.19980 -118.84267 12647 ft 311 kts 146°
2026-04-21 04:35 34.18272 -118.82698 12321 ft 305 kts 146°
2026-04-21 04:35 34.16586 -118.81152 12008 ft 301 kts 146°
2026-04-21 04:35 34.14996 -118.79552 11710 ft 297 kts 141°
2026-04-21 04:35 34.13488 -118.77853 11427 ft 291 kts 140°
2026-04-21 04:36 34.12014 -118.76208 11146 ft 287 kts 141°
2026-04-21 04:36 34.10548 -118.74601 10880 ft 282 kts 141°
2026-04-21 04:36 34.09098 -118.73023 10606 ft 278 kts 141°
2026-04-21 04:36 34.07666 -118.71465 10343 ft 273 kts 141°
2026-04-21 04:37 34.06269 -118.69950 10091 ft 270 kts 141°
2026-04-21 04:37 34.04858 -118.68419 9788 ft 271 kts 141°
2026-04-21 04:37 34.03564 -118.66785 9436 ft 274 kts 125°
2026-04-21 04:37 34.02878 -118.64632 9110 ft 277 kts 104°
2026-04-21 04:38 34.02582 -118.62312 8837 ft 276 kts 100°
2026-04-21 04:38 34.02363 -118.60025 8562 ft 275 kts 99°
2026-04-21 04:38 34.02150 -118.57738 8286 ft 273 kts 99°
2026-04-21 04:38 34.01937 -118.55463 8005 ft 272 kts 99°
2026-04-21 04:39 34.01725 -118.53212 7757 ft 268 kts 99°
2026-04-21 04:39 34.01520 -118.50997 7374 ft 266 kts 98°
2026-04-21 04:39 34.01315 -118.48779 6875 ft 265 kts 98°
2026-04-21 04:39 34.01115 -118.46595 6388 ft 263 kts 98°
2026-04-21 04:40 34.00965 -118.44424 5988 ft 260 kts 88°
2026-04-21 04:40 34.01237 -118.42321 6004 ft 264 kts 80°
2026-04-21 04:40 34.01599 -118.40144 6004 ft 265 kts 80°
2026-04-21 04:40 34.01965 -118.37966 6020 ft 263 kts 80°
2026-04-21 04:41 34.02321 -118.35851 6006 ft 265 kts 80°
2026-04-21 04:41 34.02696 -118.33624 6004 ft 265 kts 81°
2026-04-21 04:41 34.03059 -118.31461 6006 ft 265 kts 81°
2026-04-21 04:41 34.03426 -118.29261 5997 ft 264 kts 82°
2026-04-21 04:42 34.03668 -118.27139 5844 ft 244 kts 86°
2026-04-21 04:42 34.03860 -118.25169 5530 ft 234 kts 85°
2026-04-21 04:42 34.04059 -118.23254 5149 ft 226 kts 85°
2026-04-21 04:42 34.04258 -118.21415 4760 ft 217 kts 84°
2026-04-21 04:43 34.04340 -118.19653 4371 ft 209 kts 102°
2026-04-21 04:43 34.03690 -118.18153 3956 ft 200 kts 138°
2026-04-21 04:43 34.02479 -118.17455 3555 ft 194 kts 168°
2026-04-21 04:43 34.01154 -118.17201 3162 ft 191 kts 171°
2026-04-21 04:44 33.99854 -118.17088 2766 ft 189 kts 191°
2026-04-21 04:44 33.98774 -118.17844 2615 ft 176 kts 230°
2026-04-21 04:44 33.98077 -118.19067 2605 ft 175 kts 233°
2026-04-21 04:44 33.97378 -118.20258 2607 ft 175 kts 243°
2026-04-21 04:45 33.97051 -118.21704 2606 ft 185 kts 261°
2026-04-21 04:45 33.96917 -118.23231 2604 ft 186 kts 263°
2026-04-21 04:45 33.96779 -118.24790 2602 ft 186 kts 263°
2026-04-21 04:45 33.96629 -118.26314 2379 ft 181 kts 262°
2026-04-21 04:46 33.96482 -118.27769 2163 ft 168 kts 262°
2026-04-21 04:46 33.96344 -118.29141 1948 ft 160 kts 262°
2026-04-21 04:46 33.96212 -118.30431 1745 ft 150 kts 262°
2026-04-21 04:46 33.96087 -118.31657 1552 ft 145 kts 262°
2026-04-21 04:47 33.96009 -118.32425 1429 ft 143 kts 262°
2026-04-21 04:47 33.95746 -118.34984 1014 ft 140 kts 263°
2026-04-21 04:47 33.95614 -118.36280 802 ft 138 kts 263°
2026-04-21 04:48 33.95497 -118.37413 604 ft 139 kts 263°
2026-04-21 04:48 33.95380 -118.38559 408 ft 134 kts 262°
2026-04-21 04:48 33.95262 -118.39687 223 ft 138 kts 263°
2026-04-21 04:48 33.95152 -118.40802 134 ft 126 kts 263°
2026-04-21 04:49 33.95060 -118.41660 130 ft 77 kts 266°
2026-04-21 04:49 33.95025 -118.41988 127 ft 18 kts 258°
2026-04-21 04:49 33.94978 -118.42127 127 ft 17 kts 242°
2026-04-21 04:49 33.94910 -118.42242 127 ft 16 kts 226°
2026-04-21 04:50 33.94803 -118.42282 124 ft 17 kts 176°
2026-04-21 04:50 33.94721 -118.42269 123 ft 7 kts 157°
2026-04-21 04:50 33.94689 -118.42217 123 ft 8 kts 96°
2026-04-21 04:50 33.94696 -118.42124 125 ft 13 kts 82°
2026-04-21 04:51 33.94707 -118.42022 127 ft 12 kts 82°
2026-04-21 04:51 33.94717 -118.41915 127 ft 13 kts 84°
2026-04-21 04:51 33.94729 -118.41795 127 ft 15 kts 84°
2026-04-21 04:51 33.94741 -118.41668 127 ft 16 kts 83°
2026-04-21 04:52 33.94755 -118.41532 128 ft 16 kts 83°
2026-04-21 04:52 33.94780 -118.41399 129 ft 15 kts 71°
2026-04-21 04:52 33.94778 -118.41326 129 ft 8 kts 126°
2026-04-21 04:52 33.94723 -118.41290 129 ft 10 kts 167°
2026-04-21 04:53 33.94647 -118.41278 127 ft 12 kts 175°
2026-04-21 04:53 33.94554 -118.41267 127 ft 14 kts 171°
2026-04-21 04:53 33.94456 -118.41249 127 ft 14 kts 174°
2026-04-21 04:53 33.94353 -118.41237 127 ft 15 kts 174°
2026-04-21 04:54 33.94272 -118.41212 128 ft 7 kts 137°
2026-04-21 04:54 33.94257 -118.41163 128 ft 1 kts 95°
2026-04-21 04:54 33.94257 -118.41142 128 ft 3 kts 90°
2026-04-21 04:54 33.94259 -118.41123 128 ft 1 kts 84°
2026-04-21 04:55 33.94259 -118.41116 128 ft 0 kts 84°